Location: *
(44.1392°N, 4.8079°E)
Time: 08:13:49
(UTC+00:00)

Cosmos 841 Rocket - Pass Details

Date: 21 June 2021
Orbit: 747 x 772 km, 74.0° (Epoch: 02 August)

Event Time Altitude Azimuth Distance (km) Brightness Sun altitude
Exits shadow 01:24:02 31° 234° (SW) 1,300 4.2 -18.5°
Maximum altitude 01:26:14 52° 295° (WNW) 923 3.9 -18.4°
Drops below altitude 10° 01:31:16 10° 12° (NNE) 2,273 7.1 -18.0°
Sets 01:33:42 0° 17° (NNE) 3,201 8.4 -17.8°
